QFA973 YBBN-YMML

Flight info

Callsign QFA973
Flight time N/A
Altitude 32000
Route SANEG Q35 DORSU H119 ARBEY
Aircraft B738/M-SDE2E3FGHIRWXY/LB1

Departure

Time 2026-05-01 12:57
Airport Brisbane International Airport (YBBN)

Arrival

Time N/A
Airport Melbourne Airport (YMML)
Time Latitude Longitude Altitude Speed Heading
2026-05-01 12:20 -27.38237 153.12225 17 ft 0 kts 205°
2026-05-01 12:48 -27.38233 153.12228 17 ft 4 kts 205°
2026-05-01 12:48 -27.38209 153.12241 19 ft 4 kts 198°
2026-05-01 12:48 -27.38191 153.12240 17 ft 4 kts 144°
2026-05-01 12:48 -27.38177 153.12217 18 ft 4 kts 113°
2026-05-01 12:49 -27.38174 153.12210 18 ft 0 kts 117°
2026-05-01 12:52 -27.38199 153.12265 17 ft 8 kts 116°
2026-05-01 12:52 -27.38214 153.12324 17 ft 8 kts 109°
2026-05-01 12:53 -27.38261 153.12429 18 ft 7 kts 114°
2026-05-01 12:53 -27.38282 153.12480 17 ft 7 kts 117°
2026-05-01 12:53 -27.38307 153.12536 19 ft 9 kts 108°
2026-05-01 12:54 -27.38285 153.12596 18 ft 9 kts 30°
2026-05-01 12:54 -27.38170 153.12661 18 ft 11 kts 27°
2026-05-01 12:54 -27.38096 153.12703 18 ft 12 kts 27°
2026-05-01 12:55 -27.38003 153.12834 17 ft 12 kts 110°
2026-05-01 12:55 -27.38040 153.12916 18 ft 12 kts 116°
2026-05-01 12:55 -27.38075 153.12996 19 ft 11 kts 118°
2026-05-01 12:56 -27.38138 153.13040 20 ft 12 kts 179°
2026-05-01 12:56 -27.38220 153.13000 21 ft 15 kts 207°
2026-05-01 12:56 -27.38557 153.12805 22 ft 98 kts 207°
2026-05-01 12:56 -27.39406 153.12326 35 ft 172 kts 206°
2026-05-01 12:57 -27.40538 153.11691 870 ft 183 kts 204°
2026-05-01 12:57 -27.42851 153.10652 2755 ft 193 kts 166°
2026-05-01 12:57 -27.44069 153.11337 3093 ft 204 kts 142°
2026-05-01 12:58 -27.45287 153.12228 3648 ft 212 kts 146°
2026-05-01 12:58 -27.46590 153.13068 4283 ft 219 kts 148°
2026-05-01 12:58 -27.47917 153.13876 5084 ft 220 kts 148°
2026-05-01 12:59 -27.50892 153.14749 6331 ft 251 kts 185°
2026-05-01 12:59 -27.52678 153.14297 6734 ft 271 kts 188°
2026-05-01 12:59 -27.56416 153.13256 8167 ft 283 kts 193°
2026-05-01 13:00 -27.60188 153.11743 9699 ft 292 kts 195°
2026-05-01 13:00 -27.62123 153.10962 10355 ft 301 kts 195°
2026-05-01 13:01 -27.66440 153.09495 10724 ft 347 kts 193°
2026-05-01 13:01 -27.68826 153.08722 10950 ft 366 kts 193°
2026-05-01 13:01 -27.73801 153.07077 12147 ft 376 kts 194°
2026-05-01 13:02 -27.76315 153.06237 12840 ft 378 kts 194°
2026-05-01 13:07 -28.24909 152.69873 23435 ft 430 kts 214°
2026-05-01 13:07 -28.27317 152.67934 23816 ft 432 kts 214°
2026-05-01 13:07 -28.29771 152.65956 24165 ft 433 kts 214°
2026-05-01 13:08 -28.32227 152.63976 24550 ft 434 kts 214°
2026-05-01 13:08 -28.34690 152.61989 24931 ft 434 kts 214°
2026-05-01 13:08 -28.37152 152.60001 25282 ft 435 kts 215°
2026-05-01 13:08 -28.39621 152.58006 25577 ft 438 kts 215°
2026-05-01 13:09 -28.42109 152.55996 25875 ft 439 kts 215°
2026-05-01 13:09 -28.44601 152.53981 26208 ft 440 kts 215°
2026-05-01 13:09 -28.47101 152.51958 26556 ft 441 kts 215°
2026-05-01 13:09 -28.49601 152.49934 26883 ft 442 kts 215°
2026-05-01 13:10 -28.52104 152.47906 27201 ft 443 kts 215°
2026-05-01 13:10 -28.54615 152.45871 27503 ft 443 kts 215°
2026-05-01 13:10 -28.57124 152.43836 27928 ft 441 kts 215°
2026-05-01 13:10 -28.59615 152.41814 28446 ft 437 kts 215°
2026-05-01 13:11 -28.62075 152.39817 28993 ft 433 kts 216°
2026-05-01 13:11 -28.64517 152.37833 29471 ft 430 kts 216°
2026-05-01 13:11 -28.66949 152.35856 29926 ft 428 kts 216°
2026-05-01 13:11 -28.69363 152.33892 30393 ft 426 kts 216°
2026-05-01 13:12 -28.71763 152.31939 30810 ft 423 kts 216°
2026-05-01 13:12 -28.74148 152.29996 31196 ft 420 kts 216°
2026-05-01 13:12 -28.76524 152.28060 31566 ft 418 kts 216°
2026-05-01 13:12 -28.78880 152.26140 31968 ft 415 kts 216°
2026-05-01 13:13 -28.81220 152.24231 32286 ft 415 kts 216°
2026-05-01 13:13 -28.85948 152.20371 32289 ft 418 kts 216°
2026-05-01 13:14 -28.90644 152.16532 32295 ft 412 kts 216°
2026-05-01 13:14 -28.95265 152.12750 32312 ft 411 kts 216°
2026-05-01 13:15 -28.99915 152.08941 32310 ft 412 kts 216°
2026-05-01 13:15 -29.04586 152.05110 32310 ft 414 kts 216°
2026-05-01 13:16 -29.09268 152.01265 32305 ft 415 kts 216°
2026-05-01 13:16 -29.13957 151.97411 32302 ft 415 kts 216°
2026-05-01 13:17 -29.23247 151.89760 32303 ft 409 kts 216°
2026-05-01 13:18 -29.30166 151.84051 32311 ft 408 kts 216°
2026-05-01 13:18 -29.34776 151.80242 32304 ft 408 kts 216°
2026-05-01 13:19 -29.39382 151.76432 32303 ft 409 kts 216°
2026-05-01 13:20 -29.46303 151.70697 32305 ft 409 kts 216°
2026-05-01 13:20 -29.50924 151.66866 32312 ft 410 kts 216°
2026-05-01 13:21 -29.58319 151.61901 32305 ft 411 kts 210°
2026-05-01 13:21 -29.63321 151.58693 32309 ft 412 kts 210°
2026-05-01 13:22 -29.68318 151.55461 32308 ft 412 kts 210°
2026-05-01 13:22 -29.73318 151.52213 32311 ft 413 kts 210°
2026-05-01 13:23 -29.78323 151.48954 32314 ft 414 kts 210°
2026-05-01 13:23 -29.83300 151.45710 32313 ft 414 kts 211°
2026-05-01 13:24 -29.88313 151.42439 32317 ft 414 kts 211°
2026-05-01 13:25 -29.95830 151.37527 32316 ft 414 kts 211°
2026-05-01 13:25 -30.00826 151.34258 32313 ft 412 kts 211°
2026-05-01 13:26 -30.05809 151.30992 32320 ft 411 kts 211°
2026-05-01 13:26 -30.10787 151.27723 32318 ft 411 kts 211°
2026-05-01 13:27 -30.15757 151.24455 32316 ft 412 kts 211°
2026-05-01 13:27 -30.23225 151.19537 32321 ft 412 kts 211°
2026-05-01 13:28 -30.30710 151.14600 32319 ft 413 kts 211°
2026-05-01 13:29 -30.40725 151.07980 32323 ft 415 kts 211°
2026-05-01 13:31 -30.55836 150.97961 32309 ft 418 kts 211°
2026-05-01 13:32 -30.68469 150.89557 32317 ft 419 kts 211°
2026-05-01 13:33 -30.81092 150.81135 32322 ft 420 kts 211°
2026-05-01 13:34 -30.91256 150.74334 32334 ft 420 kts 211°
2026-05-01 13:35 -30.98831 150.69254 32333 ft 421 kts 211°
2026-05-01 13:36 -31.06416 150.64075 32328 ft 421 kts 216°
2026-05-01 13:36 -31.13042 150.57403 32321 ft 420 kts 223°
2026-05-01 13:37 -31.17389 150.52824 32307 ft 421 kts 223°
2026-05-01 13:37 -31.21758 150.48253 32297 ft 422 kts 223°
2026-05-01 13:38 -31.28327 150.41402 32299 ft 422 kts 223°
2026-05-01 13:39 -31.32713 150.36824 32300 ft 423 kts 223°
2026-05-01 13:39 -31.37106 150.32231 32299 ft 423 kts 223°
2026-05-01 13:40 -31.41499 150.27633 32299 ft 424 kts 223°
2026-05-01 13:40 -31.45896 150.23023 32307 ft 424 kts 223°
2026-05-01 13:41 -31.50300 150.18400 32309 ft 425 kts 223°
2026-05-01 13:41 -31.54694 150.13783 32310 ft 425 kts 223°
2026-05-01 13:42 -31.59092 150.09153 32313 ft 425 kts 223°
2026-05-01 13:42 -31.63496 150.04512 32315 ft 425 kts 223°
2026-05-01 13:43 -31.67872 149.99895 32310 ft 426 kts 223°
2026-05-01 13:43 -31.72276 149.95240 32321 ft 426 kts 223°
2026-05-01 13:44 -31.76686 149.90574 32315 ft 427 kts 223°
2026-05-01 13:44 -31.81108 149.85889 32317 ft 428 kts 224°
2026-05-01 13:45 -31.85495 149.81147 32317 ft 428 kts 226°
2026-05-01 13:45 -31.89663 149.76145 32320 ft 428 kts 227°
2026-05-01 13:46 -31.93791 149.71081 32315 ft 429 kts 227°
2026-05-01 13:46 -31.97939 149.66023 32318 ft 429 kts 227°
2026-05-01 13:47 -32.02095 149.60975 32314 ft 430 kts 227°
2026-05-01 13:47 -32.06259 149.55921 32309 ft 430 kts 227°
2026-05-01 13:48 -32.10424 149.50857 32309 ft 430 kts 227°
2026-05-01 13:48 -32.14579 149.45798 32314 ft 429 kts 227°
2026-05-01 13:49 -32.18734 149.40732 32315 ft 429 kts 227°
2026-05-01 13:49 -32.22889 149.35658 32315 ft 429 kts 227°
2026-05-01 13:50 -32.27035 149.30587 32308 ft 429 kts 228°
2026-05-01 13:50 -32.31154 149.25543 32312 ft 429 kts 228°
2026-05-01 13:51 -32.35294 149.20466 32306 ft 429 kts 228°
2026-05-01 13:51 -32.39433 149.15385 32312 ft 429 kts 228°
2026-05-01 13:52 -32.42901 149.11122 32306 ft 429 kts 228°
2026-05-01 13:52 -32.47033 149.06037 32309 ft 429 kts 228°
2026-05-01 13:53 -32.51163 149.00946 32309 ft 428 kts 228°
2026-05-01 13:53 -32.57355 148.93299 32303 ft 428 kts 228°
2026-05-01 13:54 -32.61476 148.88200 32305 ft 428 kts 228°
2026-05-01 13:54 -32.65597 148.83094 32304 ft 428 kts 228°
2026-05-01 13:55 -32.69687 148.78019 32307 ft 428 kts 228°
2026-05-01 13:55 -32.73803 148.72905 32309 ft 428 kts 228°
2026-05-01 13:56 -32.77914 148.67790 32306 ft 428 kts 228°
2026-05-01 13:56 -32.82025 148.62667 32309 ft 428 kts 228°
2026-05-01 13:57 -32.86137 148.57536 32304 ft 428 kts 228°
2026-05-01 13:57 -32.90246 148.52401 32303 ft 428 kts 228°
2026-05-01 13:58 -32.94351 148.47264 32302 ft 428 kts 229°
2026-05-01 13:58 -32.98452 148.42124 32304 ft 428 kts 229°
2026-05-01 13:59 -33.02551 148.36979 32298 ft 428 kts 229°
2026-05-01 13:59 -33.06643 148.31834 32298 ft 428 kts 229°
2026-05-01 14:00 -33.10734 148.26685 32291 ft 427 kts 229°
2026-05-01 14:00 -33.15041 148.21790 32293 ft 430 kts 221°
2026-05-01 14:01 -33.19781 148.17445 32291 ft 430 kts 220°
2026-05-01 14:01 -33.24542 148.13118 32286 ft 430 kts 220°
2026-05-01 14:02 -33.29279 148.08773 32288 ft 429 kts 221°
2026-05-01 14:02 -33.33975 148.04435 32291 ft 429 kts 221°
2026-05-01 14:03 -33.38692 148.00063 32286 ft 429 kts 221°
2026-05-01 14:03 -33.43406 147.95687 32295 ft 429 kts 221°
2026-05-01 14:04 -33.48121 147.91303 32285 ft 429 kts 221°
2026-05-01 14:04 -33.52837 147.86914 32287 ft 429 kts 221°
2026-05-01 14:05 -33.57552 147.82519 32287 ft 430 kts 221°
2026-05-01 14:05 -33.62269 147.78116 32286 ft 430 kts 221°
2026-05-01 14:06 -33.66988 147.73704 32288 ft 430 kts 221°
2026-05-01 14:06 -33.71707 147.69287 32286 ft 430 kts 221°
2026-05-01 14:07 -33.76423 147.64866 32279 ft 430 kts 221°
2026-05-01 14:08 -33.83502 147.58218 32276 ft 431 kts 221°
2026-05-01 14:08 -33.88226 147.53774 32282 ft 431 kts 221°
2026-05-01 14:09 -33.92952 147.49321 32281 ft 431 kts 221°
2026-05-01 14:09 -33.97677 147.44862 32277 ft 432 kts 222°
2026-05-01 14:10 -34.02408 147.40392 32279 ft 432 kts 222°
2026-05-01 14:10 -34.07135 147.35919 32280 ft 432 kts 222°
2026-05-01 14:11 -34.11868 147.31433 32279 ft 433 kts 222°
2026-05-01 14:11 -34.18932 147.24728 32275 ft 433 kts 222°
2026-05-01 14:12 -34.23672 147.20218 32280 ft 433 kts 222°
2026-05-01 14:12 -34.28407 147.15708 32269 ft 434 kts 222°
2026-05-01 14:13 -34.32347 147.11950 32272 ft 434 kts 222°
2026-05-01 14:13 -34.37887 147.06658 32267 ft 434 kts 222°
2026-05-01 14:14 -34.42633 147.02117 32264 ft 435 kts 222°
2026-05-01 14:14 -34.47379 146.97570 32262 ft 435 kts 222°
2026-05-01 14:15 -34.52098 146.93041 32262 ft 435 kts 222°
2026-05-01 14:15 -34.56846 146.88478 32262 ft 436 kts 223°
2026-05-01 14:16 -34.61598 146.83903 32259 ft 436 kts 223°
2026-05-01 14:16 -34.66347 146.79326 32256 ft 436 kts 223°
2026-05-01 14:17 -34.71104 146.74733 32256 ft 437 kts 223°
2026-05-01 14:17 -34.75830 146.70163 32255 ft 437 kts 223°
2026-05-01 14:18 -34.80591 146.65553 32254 ft 438 kts 223°
2026-05-01 14:18 -34.84552 146.61712 32253 ft 438 kts 223°
2026-05-01 14:19 -34.90130 146.56294 32248 ft 439 kts 223°
2026-05-01 14:19 -34.94903 146.51652 32247 ft 440 kts 223°
2026-05-01 14:20 -35.02080 146.44656 32244 ft 441 kts 223°
2026-05-01 14:21 -35.06869 146.39980 32244 ft 441 kts 223°
2026-05-01 14:21 -35.11661 146.35293 32240 ft 442 kts 223°
2026-05-01 14:22 -35.18860 146.28238 32236 ft 442 kts 223°
2026-05-01 14:22 -35.23657 146.23528 32240 ft 443 kts 223°
2026-05-01 14:23 -35.28463 146.18801 32238 ft 443 kts 223°
2026-05-01 14:23 -35.33272 146.14064 32236 ft 444 kts 223°
2026-05-01 14:24 -35.38049 146.09351 32233 ft 444 kts 223°
2026-05-01 14:24 -35.42867 146.04590 32232 ft 445 kts 223°